| time (UTC) | temp C | wind direction | speed KPH | gust KPH | rain 1hr cm | rain 24hr cm | rain mn cm | humidity % | barometer mb |
| 20260504110124 | 12 | 203 | 0.0 | 0.0 | 0.00 | 0.00 | 0.00 | 75 | 985.9 |
| 20260504100143 | 12 | 225 | 0.0 | 0.0 | 0.00 | 0.00 | 0.00 | 75 | 985.8 |
| 20260504090122 | 12 | 225 | 0.0 | 0.0 | 0.00 | 0.00 | 0.00 | 74 | 986.0 |
| 20260504081124 | 12 | 203 | 0.0 | 0.0 | 0.00 | 0.00 | 0.00 | 74 | 986.1 |
| 20260504080124 | 12 | 180 | 0.0 | 0.0 | 0.00 | 0.00 | 0.00 | 74 | 986.1 |
| 20260504070122 | 12 | 225 | 0.0 | 0.0 | 0.00 | 0.00 | 0.00 | 73 | 986.5 |
| 20260504060144 | 13 | 158 | 0.0 | 0.0 | 0.00 | 0.00 | 0.00 | 73 | 987.0 |
| 20260504050143 | 13 | 225 | 0.0 | 0.0 | 0.00 | 0.00 | 0.00 | 71 | 987.1 |
| 20260504045123 | 13 | 225 | 0.0 | 0.0 | 0.00 | 0.00 | 0.00 | 71 | 987.2 |
| 20260504044143 | 13 | 203 | 0.0 | 0.0 | 0.00 | 0.00 | 0.00 | 71 | 987.2 |
| 20260504043123 | 12 | 225 | 0.0 | 0.0 | 0.00 | 0.00 | 0.00 | 71 | 987.5 |
| 20260504042122 | 12 | 225 | 0.0 | 0.0 | 0.00 | 0.00 | 0.00 | 72 | 987.5 |
| 20260504041123 | 12 | 248 | 0.0 | 0.0 | 0.00 | 0.00 | 0.00 | 73 | 987.8 |
| 20260504040122 | 12 | 225 | 0.0 | 0.0 | 0.00 | 0.00 | 0.00 | 74 | 987.9 |
| 20260504035122 | 12 | 225 | 0.0 | 0.0 | 0.00 | 0.00 | 0.00 | 73 | 987.9 |
| 20260504034122 | 12 | 225 | 0.0 | 0.0 | 0.00 | 0.00 | 0.00 | 75 | 988.0 |
| 20260504033122 | 12 | 180 | 0.0 | 0.0 | 0.00 | 0.00 | 0.00 | 74 | 988.0 |
| 20260504032143 | 12 | 270 | 0.0 | 0.0 | 0.00 | 0.00 | 0.00 | 75 | 987.9 |
| 20260504031122 | 12 | 90 | 0.0 | 0.0 | 0.00 | 0.00 | 0.00 | 74 | 987.9 |
| 20260504030122 | 12 | 90 | 0.0 | 0.0 | 0.00 | 0.00 | 0.00 | 74 | 987.9 |
| 20260504025125 | 12 | 68 | 0.0 | 0.0 | 0.00 | 0.00 | 0.00 | 70 | 987.9 |
| 20260504024123 | 12 | 225 | 0.0 | 0.0 | 0.00 | 0.00 | 0.00 | 71 | 987.7 |
| 20260504023123 | 12 | 225 | 0.0 | 0.0 | 0.00 | 0.00 | 0.00 | 70 | 987.6 |
| 20260504022144 | 12 | 225 | 0.0 | 0.0 | 0.00 | 0.00 | 0.00 | 70 | 987.5 |
| 20260504021122 | 12 | 180 | 0.0 | 0.0 | 0.00 | 0.00 | 0.00 | 71 | 987.5 |
| 20260504020122 | 13 | 270 | 0.0 | 0.0 | 0.00 | 0.00 | 0.00 | 71 | 987.5 |
| 20260504015122 | 13 | 270 | 0.0 | 0.0 | 0.00 | 0.00 | 0.00 | 71 | 987.5 |
| 20260504014122 | 13 | 270 | 0.0 | 0.0 | 0.00 | 0.00 | 0.00 | 71 | 987.6 |
| 20260504013123 | 13 | 270 | 0.0 | 0.0 | 0.00 | 0.00 | 0.00 | 72 | 987.4 |
| 20260504012143 | 13 | 270 | 0.0 | 0.0 | 0.00 | 0.00 | 0.00 | 69 | 987.5 |
| 20260504011143 | 14 | 270 | 0.0 | 0.0 | 0.00 | 0.00 | 0.00 | 67 | 987.5 |
| 20260504010123 | 15 | 270 | 0.0 | 0.0 | 0.00 | 0.00 | 0.00 | 65 | 987.6 |
| 20260504005123 | 15 | 270 | 0.0 | 0.0 | 0.00 | 0.00 | 0.00 | 64 | 987.6 |
| 20260504004144 | 16 | 225 | 0.0 | 0.0 | 0.00 | 0.00 | 0.00 | 62 | 987.7 |
| 20260504003122 | 16 | 203 | 0.0 | 0.0 | 0.00 | 0.00 | 0.00 | 58 | 987.7 |
| 20260504002122 | 16 | 203 | 0.0 | 0.0 | 0.00 | 0.00 | 0.00 | 57 | 987.7 |
| 20260504001123 | 17 | 203 | 0.0 | 0.0 | 0.00 | 0.00 | 0.00 | 56 | 987.8 |
| 20260504000122 | 17 | 203 | 0.0 | 0.0 | 0.00 | 0.00 | 0.00 | 53 | 987.8 |
| 20260503235123 | 17 | 203 | 0.0 | 0.0 | 0.00 | 0.00 | 0.00 | 51 | 987.8 |
| 20260503234122 | 18 | 203 | 0.0 | 0.0 | 0.00 | 0.00 | 0.00 | 51 | 988.0 |
| 20260503233122 | 18 | 203 | 0.0 | 0.0 | 0.00 | 0.00 | 0.00 | 51 | 988.2 |
| 20260503232143 | 18 | 203 | 0.0 | 0.0 | 0.00 | 0.00 | 0.00 | 48 | 988.2 |
| 20260503231122 | 18 | 203 | 0.0 | 0.0 | 0.00 | 0.00 | 0.00 | 50 | 988.4 |
| 20260503230123 | 19 | 248 | 0.0 | 0.0 | 0.00 | 0.00 | 0.00 | 48 | 988.4 |
| 20260503225122 | 19 | 225 | 0.0 | 0.0 | 0.00 | 0.00 | 0.00 | 47 | 988.4 |
| 20260503224122 | 20 | 225 | 0.0 | 0.0 | 0.00 | 0.00 | 0.00 | 45 | 988.4 |
| 20260503223122 | 20 | 270 | 0.0 | 0.0 | 0.00 | 0.00 | 0.00 | 45 | 988.5 |
| 20260503222122 | 20 | 270 | 0.0 | 0.0 | 0.00 | 0.00 | 0.00 | 46 | 988.6 |
| 20260503221122 | 20 | 52 | 0.0 | 16.1 | 0.00 | 0.00 | 0.00 | 45 | 988.8 |
| 20260503220144 | 20 | 225 | 0.0 | 0.0 | 0.00 | 0.00 | 0.00 | 44 | 988.8 |
| 20260503215123 | 20 | 248 | 0.0 | 0.0 | 0.00 | 0.00 | 0.00 | 44 | 989.0 |
| 20260503214123 | 20 | 315 | 0.0 | 0.0 | 0.00 | 0.00 | 0.00 | 43 | 989.2 |
| 20260503213122 | 20 | 248 | 0.0 | 0.0 | 0.00 | 0.00 | 0.00 | 42 | 989.2 |
| 20260503212148 | 21 | 158 | 0.0 | 0.0 | 0.00 | 0.00 | 0.00 | 41 | 989.5 |
| 20260503211143 | 21 | 270 | 0.0 | 0.0 | 0.00 | 0.03 | 0.00 | 40 | 989.8 |
| 20260503210122 | 22 | 180 | 0.0 | 0.0 | 0.00 | 0.03 | 0.00 | 40 | 989.8 |
| 20260503205122 | 23 | 225 | 0.0 | 0.0 | 0.00 | 0.00 | 0.00 | 37 | 989.9 |
| 20260503204122 | 23 | 203 | 0.0 | 0.0 | 0.00 | 0.00 | 0.00 | 37 | 990.0 |
| 20260503203122 | 26 | 158 | 0.0 | 0.0 | 0.00 | 0.00 | 0.00 | 35 | 990.2 |
| 20260503202144 | 26 | 270 | 0.0 | 0.0 | 0.00 | 0.00 | 0.00 | 34 | 990.6 |
| 20260503201123 | 24 | 225 | 0.0 | 0.0 | 0.00 | 0.00 | 0.00 | 36 | 990.8 |
| 20260503200126 | 25 | 104 | 0.0 | 3.2 | 0.00 | 0.00 | 0.00 | 33 | 990.8 |
| 20260503195125 | 26 | 225 | 0.0 | 0.0 | 0.00 | 0.00 | 0.00 | 33 | 990.9 |
| 20260503194122 | 26 | 225 | 0.0 | 0.0 | 0.00 | 0.00 | 0.00 | 34 | 991.2 |
| 20260503193144 | 25 | 203 | 0.0 | 0.0 | 0.00 | 0.00 | 0.00 | 36 | 991.2 |
| 20260503192123 | 25 | 225 | 0.0 | 0.0 | 0.00 | 0.00 | 0.00 | 34 | 991.5 |
| 20260503191122 | 26 | 68 | 0.0 | 0.0 | 0.00 | 0.00 | 0.00 | 37 | 991.7 |
| 20260503190122 | 26 | 158 | 0.0 | 0.0 | 0.00 | 0.00 | 0.00 | 36 | 991.7 |
| 20260503185125 | 25 | 23 | 0.0 | 6.4 | 0.00 | 0.00 | 0.00 | 36 | 991.9 |
| 20260503184125 | 23 | 225 | 0.0 | 0.0 | 0.00 | 0.00 | 0.00 | 36 | 992.0 |
| 20260503183145 | 23 | 270 | 0.0 | 0.0 | 0.00 | 0.00 | 0.00 | 37 | 992.2 |
| 20260503182123 | 24 | 225 | 0.0 | 0.0 | 0.00 | 0.00 | 0.00 | 36 | 992.2 |
| 20260503181122 | 24 | 203 | 0.0 | 0.0 | 0.00 | 0.00 | 0.00 | 35 | 992.4 |
| 20260503180122 | 23 | 225 | 0.0 | 0.0 | 0.00 | 0.00 | 0.00 | 36 | 992.4 |
| 20260503175123 | 25 | 225 | 0.0 | 0.0 | 0.00 | 0.00 | 0.00 | 35 | 992.6 |
| 20260503174124 | 23 | 113 | 0.0 | 0.0 | 0.00 | 0.00 | 0.00 | 37 | 992.7 |
| 20260503173124 | 23 | 203 | 0.0 | 0.0 | 0.00 | 0.00 | 0.00 | 38 | 992.9 |
| 20260503172124 | 23 | 68 | 0.0 | 0.0 | 0.00 | 0.00 | 0.00 | 40 | 992.9 |
| 20260503171124 | 23 | 270 | 0.0 | 0.0 | 0.00 | 0.00 | 0.00 | 36 | 993.2 |
| 20260503170143 | 23 | 270 | 0.0 | 0.0 | 0.00 | 0.00 | 0.00 | 37 | 993.2 |
| 20260503160123 | 21 | 113 | 0.0 | 0.0 | 0.00 | 0.00 | 0.00 | 41 | 993.8 |